Precipitable_Water
0.99 1.02 0.96 0.94 0.94 0.93 1.03 1.13 1.15 1.21 1.24 1.27 1.22 1.19 1.15 1.14 1.15 1.13 1.23 1.12 1.08 1.12 1.14 1.15 1.13 1.10 1.09 1.06 1.04 1.02 0.92 0.81 0.81 0.94 1.00 0.90 0.91 0.99 1.12 1.30 1.20 0.95 0.91
1.12 1.13 0.97 0.93 0.91 0.90 0.92 1.02 1.10 1.08 1.08 1.10 1.10 1.10 1.09 1.07 1.08 1.10 1.11 1.15 1.11 1.12 1.14 1.15 1.15 1.13 1.08 1.06 1.03 1.03 0.97 0.83 0.94 1.08 1.18 1.03 0.90 0.83 0.87 1.05 1.08 1.01 1.07
1.25 1.18 1.14 1.09 1.02 0.95 0.96 0.99 1.03 1.00 1.01 1.01 1.08 1.08 1.05 1.01 1.01 1.01 1.07 1.08 1.10 1.07 1.06 1.11 1.17 1.16 1.13 1.10 1.09 1.06 1.05 0.99 1.06 1.15 1.26 1.26 1.06 0.80 0.81 0.82 0.83 0.85 0.89
1.28 1.24 1.14 1.11 1.07 1.07 1.00 0.97 1.00 1.02 1.05 1.11 1.16 1.15 1.03 1.05 1.03 0.98 0.96 0.99 1.03 1.03 1.02 1.00 1.03 1.10 1.10 1.11 1.13 1.11 1.06 1.07 1.27 1.36 1.36 1.53 1.31 1.02 0.79 0.91 0.95 0.96 0.98
1.23 1.21 1.21 1.20 1.15 1.12 1.16 1.20 1.11 1.10 1.09 1.09 1.11 1.10 1.12 1.15 1.15 1.11 1.00 0.94 0.94 0.99 1.01 1.01 0.99 0.97 1.00 1.01 1.05 1.07 1.03 1.01 1.21 1.38 1.44 1.26 1.11 1.12 0.86 0.90 1.03 1.01 1.05
1.16 1.15 1.12 1.10 1.08 1.05 1.02 1.07 1.22 1.21 1.17 1.15 1.16 1.18 1.20 1.18 1.16 1.15 1.11 1.05 0.95 0.92 0.92 0.95 0.95 0.95 0.92 0.89 0.92 0.98 0.99 0.95 1.11 1.31 1.57 1.60 1.37 1.12 0.94 0.88 0.90 0.91 0.94
1.14 1.13 1.05 1.01 0.97 0.95 0.87 0.84 0.94 1.10 1.15 1.13 1.13 1.08 1.00 0.98 0.97 0.95 0.99 1.02 1.03 0.98 0.90 0.86 0.85 0.88 0.87 0.86 0.84 0.83 0.87 0.90 0.93 1.13 1.27 1.54 1.55 1.27 1.17 0.96 0.91 0.89 0.86
1.16 1.07 0.98 0.88 0.75 0.64 0.56 0.56 0.64 0.78 0.91 0.94 0.92 0.85 0.77 0.74 0.77 0.71 0.69 0.69 0.73 0.82 0.87 0.88 0.85 0.81 0.83 0.86 0.85 0.81 0.79 0.81 0.80 1.07 1.37 1.39 1.23 1.29 1.29 1.12 1.02 0.94 0.92
1.13 0.98 0.79 0.66 0.59 0.48 0.41 0.47 0.52 0.56 0.59 0.63 0.65 0.62 0.57 0.48 0.39 0.40 0.33 0.33 0.33 0.35 0.44 0.55 0.63 0.77 0.90 0.86 0.82 0.84 0.86 0.76 0.89 1.15 1.32 1.59 1.53 1.46 1.32 1.17 1.08 1.07 1.05
0.96 0.76 0.65 0.59 0.54 0.53 0.41 0.41 0.41 0.42 0.44 0.40 0.35 0.36 0.41 0.44 0.32 0.27 0.29 0.29 0.31 0.34 0.37 0.36 0.38 0.43 0.59 0.72 0.82 0.85 0.91 0.94 1.08 1.24 1.34 1.46 1.52 1.48 1.35 1.21 1.16 1.13 1.13
0.72 0.60 0.59 0.52 0.48 0.53 0.52 0.49 0.49 0.49 0.50 0.46 0.43 0.38 0.35 0.33 0.36 0.39 0.39 0.39 0.42 0.43 0.45 0.47 0.48 0.52 0.51 0.56 0.61 0.71 0.90 0.91 1.09 1.12 1.11 1.21 1.39 1.43 1.37 1.35 1.31 1.27 1.24
0.54 0.54 0.53 0.49 0.45 0.48 0.52 0.55 0.51 0.46 0.39 0.40 0.41 0.43 0.45 0.47 0.47 0.48 0.49 0.49 0.50 0.48 0.52 0.56 0.56 0.59 0.54 0.55 0.54 0.54 0.59 0.79 1.09 1.06 1.00 1.01 1.15 1.22 1.25 1.34 1.34 1.40 1.39
0.49 0.50 0.48 0.42 0.44 0.43 0.47 0.49 0.45 0.43 0.44 0.46 0.48 0.50 0.53 0.53 0.54 0.55 0.55 0.56 0.56 0.54 0.54 0.55 0.56 0.60 0.63 0.58 0.54 0.54 0.52 0.63 0.69 0.78 0.85 0.85 0.98 1.19 1.24 1.26 1.37 1.42 1.45
0.43 0.46 0.45 0.43 0.42 0.44 0.46 0.43 0.44 0.45 0.50 0.51 0.57 0.62 0.60 0.58 0.59 0.58 0.58 0.57 0.58 0.61 0.59 0.58 0.57 0.57 0.61 0.66 0.63 0.60 0.58 0.55 0.53 0.68 0.64 0.61 0.61 0.83 1.14 1.30 1.33 1.29 1.38
0.42 0.43 0.44 0.45 0.41 0.42 0.43 0.44 0.48 0.52 0.55 0.57 0.58 0.61 0.62 0.60 0.59 0.60 0.61 0.61 0.61 0.61 0.61 0.59 0.60 0.60 0.57 0.56 0.61 0.61 0.64 0.65 0.66 0.60 0.67 0.65 0.63 0.60 0.66 0.88 1.13 1.23 1.22
0.43 0.44 0.46 0.47 0.45 0.46 0.44 0.45 0.49 0.55 0.56 0.57 0.58 0.61 0.63 0.61 0.62 0.59 0.57 0.61 0.61 0.59 0.58 0.57 0.57 0.56 0.59 0.58 0.52 0.56 0.58 0.66 0.68 0.68 0.69 0.71 0.72 0.69 0.63 0.58 0.71 0.97 1.13
0.45 0.46 0.46 0.48 0.47 0.45 0.46 0.49 0.52 0.54 0.57 0.56 0.55 0.56 0.56 0.59 0.59 0.57 0.54 0.57 0.57 0.55 0.48 0.49 0.50 0.51 0.54 0.55 0.50 0.52 0.56 0.58 0.66 0.69 0.70 0.71 0.76 0.73 0.71 0.64 0.60 0.66 0.75
0.44 0.45 0.47 0.50 0.46 0.50 0.46 0.49 0.51 0.54 0.55 0.56 0.54 0.53 0.54 0.55 0.60 0.58 0.53 0.52 0.54 0.47 0.45 0.44 0.44 0.45 0.47 0.49 0.48 0.51 0.51 0.53 0.59 0.63 0.74 0.74 0.74 0.73 0.76 0.71 0.63 0.66 0.64
0.45 0.46 0.46 0.50 0.50 0.49 0.50 0.51 0.52 0.53 0.54 0.55 0.57 0.55 0.57 0.55 0.61 0.61 0.53 0.49 0.54 0.51 0.51 0.49 0.45 0.45 0.45 0.43 0.43 0.45 0.50 0.52 0.57 0.61 0.69 0.71 0.71 0.79 0.76 0.76 0.71 0.69 0.68
0.45 0.48 0.48 0.49 0.51 0.51 0.53 0.49 0.52 0.54 0.53 0.56 0.59 0.54 0.59 0.61 0.60 0.61 0.57 0.51 0.51 0.52 0.52 0.52 0.48 0.44 0.45 0.41 0.42 0.41 0.48 0.50 0.62 0.64 0.65 0.67 0.67 0.72 0.71 0.70 0.72 0.78 0.74
0.45 0.47 0.50 0.49 0.51 0.51 0.48 0.48 0.48 0.49 0.51 0.57 0.58 0.60 0.62 0.63 0.63 0.58 0.57 0.56 0.54 0.54 0.54 0.53 0.51 0.44 0.42 0.43 0.41 0.40 0.43 0.47 0.56 0.58 0.65 0.66 0.69 0.72 0.70 0.66 0.69 0.74 0.79
0.43 0.46 0.48 0.49 0.52 0.51 0.51 0.53 0.52 0.54 0.55 0.64 0.66 0.64 0.65 0.64 0.63 0.61 0.59 0.59 0.57 0.57 0.58 0.55 0.52 0.46 0.43 0.44 0.39 0.40 0.37 0.41 0.43 0.42 0.55 0.61 0.60 0.61 0.62 0.58 0.61 0.65 0.66
0.43 0.43 0.46 0.47 0.51 0.51 0.53 0.53 0.51 0.56 0.60 0.61 0.63 0.65 0.66 0.67 0.66 0.65 0.65 0.65 0.63 0.62 0.60 0.57 0.55 0.49 0.44 0.47 0.48 0.45 0.39 0.37 0.40 0.45 0.42 0.48 0.51 0.54 0.52 0.50 0.51 0.52 0.54
0.42 0.44 0.48 0.47 0.50 0.51 0.52 0.51 0.48 0.49 0.52 0.63 0.73 0.75 0.72 0.73 0.70 0.67 0.67 0.68 0.67 0.64 0.61 0.57 0.57 0.55 0.53 0.49 0.50 0.50 0.47 0.44 0.38 0.34 0.40 0.37 0.39 0.39 0.40 0.44 0.45 0.44 0.43
0.49 0.45 0.47 0.48 0.49 0.53 0.51 0.53 0.51 0.54 0.67 0.75 0.80 0.82 0.77 0.74 0.71 0.69 0.71 0.70 0.66 0.65 0.61 0.59 0.59 0.54 0.54 0.51 0.47 0.43 0.39 0.37 0.35 0.30 0.25 0.29 0.32 0.33 0.34 0.35 0.35 0.36 0.44
0.54 0.52 0.49 0.48 0.49 0.53 0.54 0.53 0.61 0.61 0.68 0.77 0.80 0.81 0.77 0.74 0.72 0.71 0.71 0.68 0.67 0.65 0.63 0.62 0.60 0.52 0.48 0.46 0.44 0.41 0.37 0.32 0.30 0.28 0.25 0.25 0.25 0.27 0.30 0.30 0.31 0.32 0.35
Wind_Speed
8 9 9 9 9 9 9 9 9 9 9 9 10 10 11 11 11 11 10 9 9 9 9 9 10 10 11 11 11 10 10 9 8 8 8 8 8 8 7 8 6 5 4
8 9 9 9 9 9 9 9 9 8 8 9 10 10 11 11 10 10 9 9 8 8 8 8 9 9 10 10 10 10 9 8 8 8 7 7 8 7 6 6 5 5 4
9 9 9 9 9 9 9 9 10 10 10 10 10 11 12 12 12 11 10 9 9 8 8 8 8 8 9 9 9 9 8 7 7 7 7 4 7 7 6 5 5 4 3
6 7 8 8 9 9 9 10 10 10 10 10 10 11 11 11 11 11 11 10 10 9 9 8 8 8 8 8 9 8 8 7 7 8 7 6 5 6 6 5 4 4 3
7 6 6 7 9 9 9 9 9 9 9 9 10 10 10 11 11 11 10 10 10 9 9 9 9 8 8 8 8 8 8 8 8 8 9 6 5 6 6 5 4 4 3
5 5 6 7 7 8 8 8 8 8 8 9 9 9 10 10 10 10 10 10 10 10 9 9 9 9 9 9 9 9 9 9 9 9 7 6 5 5 6 6 5 4 4
5 6 6 6 7 7 7 7 8 8 8 8 9 9 10 10 10 10 10 10 10 10 10 10 9 9 9 10 10 10 10 10 9 10 13 7 6 7 7 7 7 6 6
5 5 5 6 6 7 7 7 7 7 8 8 9 9 10 11 11 11 11 11 11 11 11 11 11 11 11 11 11 11 11 11 10 11 8 8 10 9 8 8 8 8 8
4 4 4 5 6 7 7 7 7 8 8 8 9 9 10 11 11 11 12 11 11 11 12 12 12 12 12 12 12 12 12 12 12 11 12 10 10 10 10 10 10 10 10
3 3 4 5 5 6 7 7 7 8 8 9 10 10 9 9 12 12 12 12 12 12 12 13 12 13 13 14 13 14 13 13 14 11 12 12 13 13 13 13 12 12 12
2 2 3 4 4 5 6 6 7 8 8 9 9 10 10 9 10 12 13 13 14 13 13 14 14 13 13 13 13 14 14 14 14 14 15 16 16 16 16 16 16 15 14
1 2 3 4 4 5 5 6 7 8 9 9 9 10 9 9 11 11 12 13 14 15 15 13 15 14 14 14 14 15 15 16 15 17 18 18 19 19 18 18 18 17 18
0 1 2 3 4 5 5 6 7 8 8 9 9 9 9 9 11 11 12 13 14 15 15 15 15 15 15 16 15 16 16 16 17 17 18 20 21 20 20 19 19 18 18
1 1 2 3 4 5 5 6 7 7 8 8 9 9 9 10 11 12 13 14 15 15 16 16 16 17 17 17 17 17 17 17 18 17 19 20 20 21 20 20 20 21 20
2 1 2 3 3 4 5 6 6 7 7 8 9 9 9 10 11 13 14 14 15 17 17 18 18 19 20 20 19 19 19 19 19 20 20 20 20 20 21 22 22 22 23
4 3 2 3 3 4 4 4 5 6 7 8 8 10 10 11 13 14 15 16 17 18 19 20 21 21 21 22 22 22 22 21 22 22 22 22 21 21 21 21 22 22 22
5 4 3 3 3 3 4 5 5 6 7 8 9 10 12 13 14 15 16 17 19 20 21 22 23 23 23 24 24 24 24 24 23 24 23 23 23 22 22 22 22 22 23
7 6 5 5 5 5 5 6 6 7 8 9 10 12 13 14 15 16 18 19 21 22 23 24 25 25 25 25 26 26 27 26 26 26 24 25 26 24 23 23 23 23 23
8 8 7 7 7 6 6 7 8 8 9 10 11 13 14 15 16 18 19 21 22 23 24 26 27 27 26 27 27 27 27 27 26 26 26 26 25 24 25 23 23 24 23
10 9 9 9 8 8 8 9 9 10 11 11 13 14 15 16 18 20 21 23 24 25 27 28 28 27 27 27 28 29 29 28 24 25 26 26 26 25 25 25 24 23 23
11 11 11 11 10 10 11 11 11 12 12 13 14 15 16 18 20 22 23 24 26 27 29 29 29 29 29 29 29 30 28 26 26 27 28 26 25 24 24 24 23 23 23
13 13 13 13 13 13 13 13 13 13 15 14 15 17 18 20 22 23 24 26 28 28 29 30 30 30 30 31 30 30 29 29 29 31 26 24 24 23 22 23 23 23 24
15 15 15 15 15 15 15 15 15 15 16 18 19 19 20 22 23 24 26 27 28 29 30 31 31 31 31 31 31 30 29 28 31 25 26 24 24 23 23 23 24 23 25
17 16 17 17 17 17 17 17 17 18 20 21 20 21 23 24 25 25 27 28 30 31 31 32 32 32 32 31 32 30 30 31 29 25 25 26 26 26 25 25 24 25 25
17 17 18 18 18 18 19 19 19 21 21 22 23 24 24 25 26 27 29 30 31 32 32 33 33 32 32 32 31 31 32 31 30 30 29 29 29 29 28 28 28 27 25
18 18 19 20 20 20 21 22 22 22 23 23 23 24 26 27 29 29 30 32 33 33 33 33 34 33 32 32 33 34 34 34 33 33 34 34 34 33 33 33 31 30 30
Wind_Direction
76 70 67 66 64 60 58 52 47 43 41 38 35 33 31 30 30 31 33 33 32 32 30 28 27 26 26 26 27 29 30 32 34 37 39 42 43 42 42 39 67 52 58
88 70 68 64 61 58 53 47 42 40 40 38 34 31 29 27 26 25 23 23 22 21 20 17 17 18 18 18 18 22 24 26 31 30 28 39 33 30 31 35 38 37 44
84 76 65 60 56 52 50 52 52 51 49 47 43 41 38 35 33 29 26 21 16 13 8 5 5 8 10 10 10 12 13 15 13 12 10 14 17 18 18 19 18 21 19
83 71 63 56 53 56 57 54 51 50 50 47 45 40 36 33 31 27 25 21 18 13 7 2 358 356 358 359 1 0 359 359 357 349 339 323 349 2 2 4 5 7 3
82 69 59 58 65 58 51 49 47 47 45 41 37 34 31 28 25 22 19 17 14 10 7 5 0 353 347 345 346 346 345 342 340 340 331 333 319 339 343 339 334 342 350
77 65 67 70 56 48 44 40 40 40 37 32 29 25 22 19 16 13 12 9 6 3 359 356 353 351 350 348 344 341 338 335 332 333 348 326 311 315 322 318 315 310 314
77 80 73 57 46 38 35 33 34 33 29 24 20 16 12 9 7 5 3 0 358 354 351 348 345 342 338 336 334 331 328 326 322 328 328 310 310 307 313 305 297 294 293
92 85 61 46 38 33 30 30 30 28 24 19 15 11 8 5 1 359 355 352 348 344 342 338 334 331 328 326 325 323 320 318 316 320 342 315 306 299 299 297 291 287 284
92 71 50 44 42 37 35 34 31 27 20 15 11 6 5 7 5 0 359 355 351 347 341 335 331 327 324 320 319 318 316 312 309 307 307 307 308 298 297 295 288 284 281
82 59 50 38 33 32 33 31 29 24 19 16 12 6 2 7 12 12 9 6 2 358 354 348 340 333 326 320 315 315 311 308 309 303 307 299 297 293 289 287 286 286 280
75 48 33 25 24 25 26 18 14 10 6 5 3 9 13 13 8 8 9 8 5 359 356 357 351 344 336 332 321 316 311 306 304 301 299 298 296 294 287 283 281 280 279
83 38 18 21 18 16 11 12 13 10 9 7 9 9 9 7 5 4 3 3 3 1 357 349 353 350 347 340 333 325 315 309 302 299 297 297 293 290 287 283 278 277 274
124 14 6 6 5 9 3 7 2 1 3 8 10 6 8 9 7 6 5 4 0 360 358 357 354 350 346 345 338 333 327 315 312 304 299 298 295 290 283 281 278 277 276
205 336 358 357 354 356 0 4 5 7 8 8 8 8 7 5 3 1 358 356 354 352 352 350 347 346 342 337 336 331 328 324 315 311 307 304 296 289 285 281 278 275 274
219 252 320 338 346 350 0 3 6 8 9 10 10 7 3 360 356 354 351 349 348 345 343 340 337 335 335 332 328 328 324 323 320 315 309 306 301 293 286 282 279 275 272
230 251 281 314 331 344 352 1 1 2 3 3 0 357 354 351 347 346 344 341 339 339 336 334 331 329 327 327 324 321 317 315 315 315 312 308 304 296 291 286 279 276 272
238 243 263 298 317 327 333 337 342 345 346 348 348 347 346 343 341 341 340 337 335 334 333 330 328 326 324 323 322 319 315 311 308 311 309 307 304 298 292 288 283 276 273
236 244 262 280 292 302 312 320 325 329 332 333 335 337 339 338 337 336 336 334 334 332 331 329 326 324 321 320 319 317 315 309 307 305 304 307 303 298 293 289 285 277 274
240 248 258 273 282 292 301 309 315 316 321 323 326 330 331 333 332 333 333 332 331 331 331 329 326 323 321 320 320 319 317 312 306 307 302 305 304 300 294 290 285 278 274
248 253 262 271 278 286 294 298 303 308 311 315 321 322 326 329 330 331 330 330 329 328 327 327 326 324 322 321 320 320 319 315 308 309 306 303 302 300 294 291 287 278 275
251 255 262 268 275 282 287 291 296 300 305 310 315 318 321 324 326 327 327 328 328 326 326 326 324 323 321 321 318 318 318 317 315 311 310 303 303 300 296 291 290 284 278
253 259 263 268 272 277 284 288 293 295 301 304 310 313 316 318 321 324 325 325 325 325 326 326 325 322 321 321 319 317 315 314 316 310 306 305 304 303 300 295 291 288 281
256 261 263 268 271 275 281 286 289 293 297 300 304 307 312 315 318 320 321 323 324 324 324 324 323 322 320 321 321 319 317 315 316 312 307 305 307 302 300 298 293 291 284
260 262 265 269 272 275 278 283 286 290 295 297 300 304 309 311 314 317 319 321 322 322 322 322 322 320 319 319 319 318 317 315 315 313 310 306 304 303 300 298 295 293 287
262 262 266 269 272 275 277 282 285 289 295 297 299 302 306 310 313 315 316 319 320 320 320 321 320 320 319 318 319 318 316 314 311 309 307 305 303 300 298 297 294 291 286
262 264 267 270 273 275 277 279 286 287 292 295 299 302 304 307 310 312 314 317 318 319 319 319 319 319 317 316 316 315 313 311 308 305 302 301 299 297 296 294 291 288 285